Content
SEND FEEDBACK

Daily
Averages
Monthly
Summary
United States of America

VIROQUA, WISCONSIN


Home > North America > United States > Wisconsin
Elevation: 378 meters     Latitude: 43 34N     Longitude: 090 55W

WEATHER
 
SELECT A DAY
Number of Records: 107,570;   Date Range: 12/16/09 - 8/26/14
 
SHARE

PRINT THIS DATA

[ ← Previous Day ]
WEATHER ALMANAC - 13 FEBRUARY, 2013
[ Next Day → ]
[ °F ]   °C
Weather ElementAverageHighLow
Temperature-1.9 °C2 °C (2:35 pm)-6 °C (5:35 am)
Dewpoint-3.1 °C1 °C (11:15 pm)-6 °C (5:35 am)
Humidity92.9 %100 % (12:35 am)75 % (12:55 pm)
Barometer1005.4 hPa1008.8 hPa (12:35 am)1001 hPa (11:55 pm)
Wind Speed10.3 km/h18.5 km/h (10:15 pm)
Weather ElementAverage
Visibility12.1 km
Wind DirectionSW (228 °)

Weather ElementTotal
Precipitation---
Heating Degree Days20.3 (Base 18.3)
Averaged from 71 records on 13 February, 2013
WEATHER CONDITIONS BREAKOUT
WIND DIRECTION BREAKOUT
WEATHER BY HOUR - 13 FEBRUARY, 2013
[ °F ]   °C
Local TimeTemperatureDewpointHumidityBarometerVisibilityWind DirectionWind SpeedGust SpeedPrecipitationEventsConditions
12:35 AM-5 °C-5 °C100 %1008.8 hPa11.3 kmSW (230°)11.1 km/hClear
12:55 AM-5 °C-5 °C100 %1008.8 hPa11.3 kmWSW (240°)9.3 km/hClear
1:15 AM-5 °C-5 °C100 %1008.5 hPa11.3 kmSW (230°)9.3 km/hClear
1:35 AM-4 °C-4 °C100 %1008.5 hPa11.3 kmWSW (250°)9.3 km/hClear
1:55 AM-5 °C-5 °C100 %1008.5 hPa8 kmSW (230°)7.4 km/hClear
2:15 AM-5 °C-5 °C100 %1008.5 hPa8 kmWSW (240°)7.4 km/hClear
2:35 AM-5 °C-5 °C100 %1008.1 hPa6.4 kmWSW (250°)11.1 km/hClear
2:55 AM-5 °C-5 °C100 %1008.1 hPa4.8 kmWSW (250°)9.3 km/hClear
3:15 AM-5 °C-5 °C100 %1007.8 hPa4 kmSW (230°)7.4 km/hScattered Clouds
3:35 AM-5 °C-5 °C100 %1007.5 hPa4.8 kmWSW (240°)9.3 km/hClear
3:55 AM-5 °C-5 °C100 %1007.5 hPa4 kmWest (260°)11.1 km/hClear
4:15 AM-5 °C-5 °C100 %1007.1 hPa2.4 kmWSW (250°)9.3 km/h
4:35 AM-5 °C-5 °C100 %1006.8 hPa1.6 kmWSW (250°)11.1 km/h
4:55 AM-5 °C-5 °C100 %1006.8 hPa3.2 kmWSW (250°)9.3 km/hClear
5:15 AM-5 °C-5 °C100 %1007.1 hPa4 kmWest (260°)9.3 km/hClear
5:35 AM-6 °C-6 °C100 %1007.1 hPa2.9 kmWest (270°)11.1 km/h
5:55 AM-6 °C-6 °C100 %1006.8 hPa4 kmWest (260°)11.1 km/hClear
6:15 AM-6 °C-6 °C100 %1006.8 hPa4 kmWest (280°)7.4 km/hScattered Clouds
6:35 AM-6 °C-6 °C100 %1006.4 hPa6.4 kmWest (280°)7.4 km/hScattered Clouds
6:55 AM-6 °C-6 °C100 %1006.4 hPa6.4 kmWest (280°)5.6 km/hMostly Cloudy
7:15 AM-6 °C-6 °C100 %1006.4 hPa6.4 kmWest (280°)5.6 km/hOvercast
7:35 AM-6 °C-6 °C100 %1006.4 hPa8 kmWest (270°)7.4 km/hOvercast
7:55 AM-6 °C-6 °C100 %1006.4 hPa8 kmWest (270°)11.1 km/hOvercast
8:15 AM-6 °C-6 °C100 %1006.4 hPa11.3 kmWest (270°)9.3 km/hMostly Cloudy
8:35 AM-5 °C-5 °C100 %1006.1 hPa11.3 kmWest (280°)7.4 km/hOvercast
8:55 AM-5 °C-5 °C100 %1006.1 hPa11.3 kmWest (280°)5.6 km/hMostly Cloudy
9:15 AM-4 °C-4 °C100 %1006.1 hPa11.3 kmWest (280°)7.4 km/hScattered Clouds
9:35 AM-4 °C-4 °C100 %1005.8 hPa16.1 kmWNW (290°)5.6 km/hClear
9:55 AM-3 °C-3 °C100 %1005.8 hPa16.1 kmCalmClear
10:15 AM-2 °C-4 °C86 %1005.8 hPa16.1 kmWSW (250°)7.4 km/hClear
10:35 AM-2 °C-3 °C93 %1005.8 hPa16.1 kmWSW (250°)9.3 km/hClear
10:55 AM-1 °C-3 °C86 %1005.8 hPa16.1 kmWSW (250°)9.3 km/hClear
11:15 AM-1 °C-3 °C86 %1006.1 hPa16.1 kmWSW (250°)9.3 km/hClear
11:35 AM-1 °C-3 °C86 %1006.1 hPa16.1 kmWSW (250°)11.1 km/hClear
11:55 AM0 °C-3 °C80 %1005.4 hPa16.1 kmSW (230°)11.1 km/hClear
12:15 PM0 °C-3 °C80 %1005.4 hPa16.1 kmWSW (240°)14.8 km/hClear
12:35 PM0 °C-3 °C80 %1005.4 hPa16.1 kmWSW (250°)11.1 km/hClear
12:55 PM1 °C-3 °C75 %1005.1 hPa16.1 kmWSW (240°)13 km/hMostly Cloudy
1:15 PM1 °C-3 °C75 %1005.1 hPa16.1 kmWSW (240°)13 km/hOvercast
1:35 PM1 °C-3 °C75 %1005.1 hPa16.1 kmSW (230°)7.4 km/hOvercast
1:55 PM1 °C-3 °C75 %1005.1 hPa16.1 kmWSW (250°)9.3 km/hOvercast
2:15 PM1 °C-2 °C81 %1005.1 hPa16.1 kmWSW (240°)9.3 km/hMostly Cloudy
2:35 PM2 °C-2 °C75 %1005.1 hPa16.1 kmWSW (250°)9.3 km/hMostly Cloudy
2:55 PM1 °C-2 °C81 %1005.1 hPa16.1 kmWSW (250°)13 km/hMostly Cloudy
3:15 PM1 °C-2 °C81 %1005.1 hPa16.1 kmWSW (250°)13 km/hMostly Cloudy
3:35 PM1 °C-2 °C81 %1005.1 hPa16.1 kmWSW (250°)13 km/hMostly Cloudy
3:55 PM1 °C-2 °C81 %1005.1 hPa16.1 kmWSW (250°)13 km/hOvercast
4:15 PM1 °C-2 °C81 %1005.1 hPa16.1 kmSW (230°)11.1 km/hOvercast
4:35 PM1 °C-2 °C81 %1004.7 hPa16.1 kmSSW (210°)13 km/hOvercast
4:55 PM1 °C-2 °C81 %1004.7 hPa16.1 kmSSW (200°)11.1 km/hOvercast
5:15 PM0 °C-1 °C93 %1004.7 hPa16.1 kmSSW (210°)13 km/hOvercast
5:35 PM0 °C-1 °C93 %1004.7 hPa16.1 kmSouth (190°)7.4 km/hOvercast
5:55 PM0 °C-1 °C93 %1004.7 hPa16.1 kmSSW (200°)7.4 km/hOvercast
6:15 PM0 °C-1 °C93 %1004.7 hPa16.1 kmSouth (190°)9.3 km/hOvercast
6:35 PM0 °C-1 °C93 %1004.7 hPa16.1 kmSSW (200°)13 km/hOvercast
6:55 PM0 °C-1 °C93 %1004.7 hPa16.1 kmSSW (210°)11.1 km/hOvercast
7:15 PM0 °C-1 °C93 %1004.7 hPa16.1 kmSSW (210°)11.1 km/hMostly Cloudy
7:35 PM0 °C-1 °C93 %1004.4 hPa16.1 kmSSW (200°)11.1 km/hMostly Cloudy
7:55 PM0 °C-1 °C93 %1004.4 hPa16.1 kmSouth (190°)9.3 km/hOvercast
8:15 PM0 °C-1 °C93 %1004.1 hPa16.1 kmSouth (190°)9.3 km/hOvercast
8:35 PM0 °C-1 °C93 %1003.7 hPa16.1 kmSouth (180°)9.3 km/hOvercast
8:55 PM0 °C-1 °C93 %1003.4 hPa16.1 kmSouth (170°)13 km/hOvercast
9:15 PM0 °C-1 °C93 %1003.4 hPa16.1 kmSouth (180°)13 km/hOvercast
9:35 PM0 °C-1 °C93 %1003 hPa16.1 kmSouth (170°)13 km/hOvercast
9:55 PM0 °C0 °C100 %1002.7 hPa11.3 kmSSE (160°)14.8 km/hOvercast
10:15 PM0 °C0 °C100 %1002.4 hPa11.3 kmSouth (170°)18.5 km/hOvercast
10:35 PM0 °C0 °C100 %1002 hPa11.3 kmSouth (170°)14.8 km/hOvercast
10:55 PM1 °C0 °C93 %1001.7 hPa11.3 kmSouth (170°)16.7 km/hOvercast
11:15 PM1 °C1 °C100 %1001.4 hPa11.3 kmSouth (170°)14.8 km/hOvercast
11:35 PM0 °C0 °C100 %1001.4 hPa8 kmSouth (170°)14.8 km/hOvercast
11:55 PM0 °C0 °C100 %1001 hPa11.3 kmSouth (180°)13 km/hOvercast
Hourly data recorded from KY51, located 0 kilometers away from Viroqua, Wisconsin







STORIES FROM OUR PARTNERS